Location: Killam
(52.7910°N, 111.8608°W)
Time: 04:09:12
(UTC+00:00)

Oscar 11 - Pass Details

Date: 16 March 2026
Orbit: 590 x 602 km, 97.8° (Epoch: 13 April)

Event Time Altitude Azimuth Distance (km) Brightness Sun altitude
Rises 11:21:43 0° 13° (NNE) 2,842 11.0 -20.9°
Reaches altitude 10° 11:23:54 10° 12° (NNE) 1,935 10.1 -20.6°
Maximum altitude 11:28:05 78° 287° (WNW) 611 6.8 -20.1°
Enters shadow 11:29:15 46° 210° (SSW) 797 7.2 -19.9°
